Weather History for KD57 - January, 2014

Change the Weather History Date:

Friday, January 24, 2014

  Actual Average (KDIK) Record (KDIK)
Temperature  
Mean Temperature 37 °F 17 °F  
Max Temperature 42 °F 27 °F 58 °F (1968)
Min Temperature 32 °F 7 °F -34 °F (1935)
Degree Days  
Heating Degree Days 28 48  
Month to date heating degree days 1173  
Since 1 July heating degree days 4710  
Cooling Degree Days 0 0  
Month to date cooling degree days 0  
Year to date cooling degree days 0  
Moisture  
Dew Point 30 °F    
Average Humidity 78    
Maximum Humidity 93    
Minimum Humidity 60    
Precipitation  
Precipitation 0.00 in 0.01 in 0.29 in (1970)
Month to date precipitation 0.24  
Year to date precipitation 0.24  
Sea Level Pressure  
Sea Level Pressure 29.81 in    
Wind  
Wind Speed 20 mph (NW)    
Max Wind Speed 30 mph    
Max Gust Speed 41 mph    
Visibility 10 miles    
Events      
T = Trace of Precipitation, MM = Missing Value Source: NWS Daily Summary

Daily Weather History Graph

Daily Weather History Graph

Search for Another Location

Airport or City:

Trip Planner

Search our weather history database for the weather conditions in past years. The results will help you decide how hot, cold, wet, or windy it might be!

Date:

Astronomy

Jan. 24, 2014 Rise Set
Actual Time 7:20 AM MST 4:38 PM MST
Civil Twilight 6:47 AM MST 5:12 PM MST
Nautical Twilight 6:10 AM MST 5:49 PM MST
Astronomical Twilight 5:34 AM MST 6:25 PM MST
Moon 12:45 AM MST (1/24) 11:02 AM MST (1/24)
Length of Visible Light 10h 24m
Length of Day
9h 18m
Last Quarter, 44% of the Moon is Illuminated
Jan 24
Last Quarter
Jan 30
New
Feb 6
First Quarter
Feb 14
Full
Feb 22
Last Quarter

Hourly Weather History & Observations

Time (MST) Temp. Windchill Dew Point Humidity Pressure Visibility Wind Dir Wind Speed Gust Speed Precip Events Conditions
12:15 AM 35.6 °F 23.7 °F 23.0 °F 60% 29.86 in 10.0 mi WNW 24.2 mph 32.2 mph N/A   Overcast
12:35 AM 33.8 °F 22.8 °F 23.0 °F 65% 29.87 in 10.0 mi WNW 18.4 mph 27.6 mph N/A   Overcast
12:55 AM 33.8 °F 22.5 °F 23.0 °F 65% 29.87 in 10.0 mi WNW 19.6 mph 25.3 mph N/A   Overcast
1:15 AM 33.8 °F 22.8 °F 24.8 °F 70% 29.87 in 10.0 mi WNW 18.4 mph - N/A   Overcast
1:35 AM 33.8 °F 21.6 °F 24.8 °F 70% 29.87 in 10.0 mi WNW 23.0 mph - N/A   Overcast
1:55 AM 33.8 °F 22.5 °F 24.8 °F 70% 29.88 in 10.0 mi WNW 19.6 mph 28.8 mph N/A   Overcast
2:15 AM 32.0 °F 21.2 °F 24.8 °F 75% 29.88 in 10.0 mi WNW 16.1 mph - N/A   Overcast
2:35 AM 32.0 °F 22.1 °F 26.6 °F 80% 29.89 in 10.0 mi WNW 13.8 mph 19.6 mph N/A   Overcast
2:55 AM 32.0 °F 18.9 °F 26.6 °F 80% 29.88 in 10.0 mi WNW 24.2 mph - N/A   Overcast
3:15 AM 32.0 °F 20.5 °F 26.6 °F 80% 29.88 in 10.0 mi WNW 18.4 mph 25.3 mph N/A   Overcast
3:35 AM 32.0 °F 20.5 °F 26.6 °F 80% 29.88 in 10.0 mi WNW 18.4 mph 25.3 mph N/A   Mostly Cloudy
3:55 AM 32.0 °F 20.5 °F 26.6 °F 80% 29.88 in 10.0 mi WNW 18.4 mph 24.2 mph N/A   Partly Cloudy
4:15 AM 32.0 °F 20.5 °F 26.6 °F 80% 29.88 in 10.0 mi WNW 18.4 mph - N/A   Clear
4:35 AM 32.0 °F 21.2 °F 26.6 °F 80% 29.87 in 10.0 mi WNW 16.1 mph 25.3 mph N/A   Clear
4:55 AM 32.0 °F 19.8 °F 26.6 °F 80% 29.87 in 10.0 mi WNW 20.7 mph 26.5 mph N/A   Clear
5:15 AM 32.0 °F 20.5 °F 26.6 °F 80% 29.86 in 10.0 mi WNW 18.4 mph 26.5 mph N/A   Partly Cloudy
5:35 AM 32.0 °F 19.5 °F 26.6 °F 80% 29.86 in 10.0 mi WNW 21.9 mph 31.1 mph N/A   Scattered Clouds
5:55 AM 32.0 °F 20.5 °F 26.6 °F 80% 29.85 in 10.0 mi WNW 18.4 mph 26.5 mph N/A   Mostly Cloudy
6:15 AM 32.0 °F 19.8 °F 26.6 °F 80% 29.85 in 10.0 mi WNW 20.7 mph - N/A   Overcast
6:35 AM 32.0 °F 20.5 °F 26.6 °F 80% 29.84 in 10.0 mi WNW 18.4 mph 24.2 mph N/A   Mostly Cloudy
6:55 AM 32.0 °F 20.5 °F 26.6 °F 80% 29.84 in 10.0 mi WNW 18.4 mph 26.5 mph N/A   Overcast
7:15 AM 33.8 °F 21.3 °F 26.6 °F 75% 29.82 in 10.0 mi WNW 24.2 mph 31.1 mph N/A   Overcast
7:35 AM 33.8 °F 22.2 °F 28.4 °F 81% 29.82 in 10.0 mi WNW 20.7 mph - N/A   Overcast
7:55 AM 33.8 °F 22.2 °F 28.4 °F 81% 29.81 in 10.0 mi WNW 20.7 mph - N/A   Overcast
8:15 AM 33.8 °F 22.2 °F 28.4 °F 81% 29.80 in 10.0 mi WNW 20.7 mph - N/A   Overcast
8:35 AM 35.6 °F 25.2 °F 28.4 °F 75% 29.79 in 10.0 mi WNW 18.4 mph - N/A   Overcast
8:55 AM 35.6 °F 25.5 °F 28.4 °F 75% 29.78 in 10.0 mi WNW 17.3 mph 23.0 mph N/A   Overcast
9:15 AM 37.4 °F 27.5 °F 30.2 °F 75% 29.78 in 10.0 mi WNW 18.4 mph 27.6 mph N/A   Overcast
9:35 AM 37.4 °F 27.2 °F 30.2 °F 75% 29.78 in 10.0 mi WNW 19.6 mph - N/A   Overcast
9:55 AM 37.4 °F 26.6 °F 30.2 °F 75% 29.77 in 10.0 mi WNW 21.9 mph - N/A   Mostly Cloudy
10:15 AM 37.4 °F 28.2 °F 32.0 °F 81% 29.76 in 8.0 mi WNW 16.1 mph 24.2 mph N/A   Overcast
10:35 AM 39.2 °F 29.6 °F 32.0 °F 75% 29.75 in 10.0 mi WNW 19.6 mph - N/A   Overcast
10:55 AM 39.2 °F 30.2 °F 32.0 °F 75% 29.74 in 10.0 mi WNW 17.3 mph 25.3 mph N/A   Overcast
11:15 AM 41.0 °F 31.9 °F 32.0 °F 70% 29.73 in 10.0 mi WNW 19.6 mph 28.8 mph N/A   Overcast
11:35 AM 41.0 °F 30.7 °F 32.0 °F 70% 29.71 in 10.0 mi WNW 25.3 mph 32.2 mph N/A   Mostly Cloudy
11:55 AM 42.8 °F 33.5 °F 32.0 °F 66% 29.70 in 10.0 mi WNW 23.0 mph 33.4 mph N/A   Mostly Cloudy
12:15 PM 42.8 °F 33.3 °F 32.0 °F 66% 29.69 in 10.0 mi WNW 24.2 mph 32.2 mph N/A   Overcast
12:35 PM 42.8 °F 32.3 °F 32.0 °F 66% 29.68 in 10.0 mi WNW 29.9 mph 40.3 mph N/A   Mostly Cloudy
12:55 PM 42.8 °F 32.7 °F 32.0 °F 66% 29.68 in 10.0 mi WNW 27.6 mph 40.3 mph N/A   Partly Cloudy
1:15 PM 42.8 °F 32.3 °F 32.0 °F 66% 29.68 in 10.0 mi NW 29.9 mph 41.4 mph N/A   Mostly Cloudy
1:35 PM 42.8 °F 32.9 °F 32.0 °F 66% 29.69 in 10.0 mi NW 26.5 mph 36.8 mph N/A   Partly Cloudy
1:55 PM 41.0 °F 31.1 °F 32.0 °F 70% 29.71 in 10.0 mi NW 23.0 mph 34.5 mph N/A   Mostly Cloudy
2:15 PM 41.0 °F 29.8 °F 32.0 °F 70% 29.72 in 10.0 mi NW 29.9 mph 38.0 mph N/A   Overcast
2:35 PM 39.2 °F 28.7 °F 32.0 °F 75% 29.74 in 10.0 mi NW 23.0 mph 32.2 mph N/A   Overcast
2:55 PM 39.2 °F 29.3 °F 32.0 °F 75% 29.75 in 10.0 mi NW 20.7 mph 26.5 mph N/A   Overcast
3:15 PM 39.2 °F 28.5 °F 32.0 °F 75% 29.76 in 10.0 mi NW 24.2 mph - N/A   Overcast
3:35 PM 39.2 °F 29.3 °F 32.0 °F 75% 29.76 in 10.0 mi NW 20.7 mph 28.8 mph N/A   Overcast
3:55 PM 37.4 °F 27.2 °F 32.0 °F 81% 29.76 in 10.0 mi NW 19.6 mph - N/A   Overcast
4:15 PM 37.4 °F 26.4 °F 32.0 °F 81% 29.78 in 10.0 mi NW 23.0 mph 28.8 mph N/A   Overcast
4:35 PM 37.4 °F 26.6 °F 32.0 °F 81% 29.79 in 10.0 mi NW 21.9 mph 28.8 mph N/A   Overcast
4:55 PM 37.4 °F 26.4 °F 32.0 °F 81% 29.80 in 10.0 mi NW 23.0 mph - N/A   Overcast
5:15 PM 37.4 °F 25.6 °F 32.0 °F 81% 29.82 in 10.0 mi NW 26.5 mph 34.5 mph N/A   Overcast
5:35 PM 37.4 °F 27.2 °F 32.0 °F 81% 29.82 in 10.0 mi NW 19.6 mph 27.6 mph N/A   Overcast
5:55 PM 37.4 °F 27.5 °F 32.0 °F 81% 29.83 in 10.0 mi NW 18.4 mph 24.2 mph N/A   Mostly Cloudy
6:15 PM 37.4 °F 28.2 °F 32.0 °F 81% 29.83 in 10.0 mi WNW 16.1 mph - N/A   Overcast
6:35 PM 37.4 °F 28.2 °F 32.0 °F 81% 29.83 in 10.0 mi WNW 16.1 mph - N/A   Overcast
6:55 PM 37.4 °F 27.2 °F 32.0 °F 81% 29.83 in 10.0 mi WNW 19.6 mph 26.5 mph N/A   Overcast
7:15 PM 37.4 °F 27.5 °F 32.0 °F 81% 29.83 in 10.0 mi NW 18.4 mph 26.5 mph N/A   Overcast
7:35 PM 35.6 °F 26.2 °F 32.0 °F 87% 29.82 in 10.0 mi NW 15.0 mph - N/A   Overcast
7:55 PM 35.6 °F 27.5 °F 32.0 °F 87% 29.82 in 10.0 mi NW 11.5 mph - N/A   Overcast
8:15 PM 35.6 °F 27.1 °F 32.0 °F 87% 29.82 in 10.0 mi NW 12.7 mph - N/A   Overcast
8:35 PM 35.6 °F 27.5 °F 32.0 °F 87% 29.83 in 10.0 mi NW 11.5 mph - N/A   Overcast
8:55 PM 35.6 °F 27.1 °F 32.0 °F 87% 29.83 in 10.0 mi NW 12.7 mph - N/A   Overcast
9:15 PM 35.6 °F 26.6 °F 33.8 °F 93% 29.84 in 10.0 mi NW 13.8 mph - N/A   Overcast
9:35 PM 35.6 °F 25.2 °F 33.8 °F 93% 29.85 in 9.0 mi NW 18.4 mph - N/A   Overcast
9:55 PM 35.6 °F 25.9 °F 33.8 °F 93% 29.85 in 10.0 mi NW 16.1 mph - N/A   Overcast
10:15 PM 35.6 °F 25.2 °F 32.0 °F 87% 29.85 in 10.0 mi NW 18.4 mph 24.2 mph N/A   Overcast
10:35 PM 35.6 °F 25.9 °F 32.0 °F 87% 29.87 in 10.0 mi NW 16.1 mph 24.2 mph N/A   Overcast
10:55 PM 35.6 °F 25.5 °F 32.0 °F 87% 29.87 in 10.0 mi NNW 17.3 mph - N/A   Overcast
11:15 PM 33.8 °F 24.8 °F 32.0 °F 93% 29.88 in 10.0 mi North 12.7 mph 29.9 mph N/A   Overcast
11:35 PM 33.8 °F 23.5 °F 32.0 °F 93% 29.89 in 8.0 mi NNW 16.1 mph 21.9 mph N/A   Overcast
11:55 PM 33.8 °F 22.5 °F 32.0 °F 93% 29.90 in 1.8 mi NNW 19.6 mph - N/A   Light Drizzle